When you browse on this site, cookies collect data to enhance your experience and personalize the content and advertising you see.
Visit our Privacy Policy to learn more. By continuing to use the site, you agree to this use of cookies and data.
  • în România
  • Lista ţărilor
  • Pe 7 zile
  • Temperatura apei
  • Meteo pe hartă
  • Widget-uri
  • user-avatar
    Intrare

    Meteo pe oră la Bakhtaran

    Astăzi, 24 August, Sâmbătă

    Timp Temperatura Precipitaţii Vânt Presiune Umiditate
    00:00 +19°C° 0 mm 0 m/s 635 mmHg 18%
    01:00 +19°C° 0 mm 0 m/s 635 mmHg 19%
    02:00 +18°C° 0 mm 0 m/s 635 mmHg 19%
    03:00 +20°C° 0 mm 1 m/s 635 mmHg 20%
    04:00 +20°C° 0 mm 1 m/s 636 mmHg 20%
    05:00 +19°C° 0 mm 0 m/s 636 mmHg 20%
    06:00 +19°C° 0 mm 0 m/s 637 mmHg 20%
    07:00 +24°C° 0 mm 1 m/s 638 mmHg 17%
    08:00 +28°C° 0 mm 1 m/s 639 mmHg 13%
    09:00 +32°C° 0 mm 1 m/s 640 mmHg 10%
    10:00 +33°C° 0 mm 1 m/s 640 mmHg 9%
    11:00 +36°C° 0 mm 2 m/s 640 mmHg 8%
    12:00 +38°C° 0 mm 2 m/s 641 mmHg 7%
    13:00 +38°C° 0 mm 2 m/s 640 mmHg 7%
    14:00 +39°C° 0 mm 3 m/s 640 mmHg 6%
    15:00 +39°C° 0 mm 3 m/s 639 mmHg 6%
    16:00 +37°C° 0 mm 3 m/s 639 mmHg 6%
    17:00 +36°C° 0 mm 4 m/s 638 mmHg 7%
    18:00 +34°C° 0 mm 5 m/s 638 mmHg 8%
    19:00 +30°C° 0 mm 4 m/s 638 mmHg 11%
    20:00 +28°C° 0 mm 4 m/s 637 mmHg 14%
    21:00 +26°C° 0 mm 3 m/s 637 mmHg 17%
    22:00 +25°C° 0 mm 3 m/s 636 mmHg 19%
    23:00 +23°C° 0 mm 2 m/s 636 mmHg 21%

    Mâine, 25 August, Duminică

    Timp Temperatura Precipitaţii Vânt Presiune Umiditate
    00:00 +22°C° 0 mm 1 m/s 636 mmHg 23%
    01:00 +22°C° 0 mm 1 m/s 635 mmHg 25%
    02:00 +21°C° 0 mm 1 m/s 635 mmHg 27%
    03:00 +21°C° 0 mm 1 m/s 635 mmHg 29%
    04:00 +21°C° 0 mm 1 m/s 635 mmHg 28%
    05:00 +19°C° 0 mm 0 m/s 635 mmHg 28%
    06:00 +19°C° 0 mm 0 m/s 635 mmHg 28%
    07:00 +23°C° 0 mm 0 m/s 637 mmHg 23%
    08:00 +26°C° 0 mm 0 m/s 638 mmHg 18%
    09:00 +32°C° 0 mm 1 m/s 639 mmHg 13%
    10:00 +34°C° 0 mm 1 m/s 639 mmHg 11%
    11:00 +35°C° 0 mm 1 m/s 639 mmHg 9%
    12:00 +38°C° 0 mm 2 m/s 639 mmHg 7%
    13:00 +38°C° 0 mm 2 m/s 639 mmHg 7%
    14:00 +39°C° 0 mm 3 m/s 639 mmHg 6%
    15:00 +39°C° 0 mm 3 m/s 639 mmHg 6%
    16:00 +37°C° 0 mm 3 m/s 638 mmHg 7%
    17:00 +36°C° 0 mm 4 m/s 638 mmHg 9%
    18:00 +34°C° 0 mm 4 m/s 637 mmHg 11%
    19:00 +32°C° 0 mm 4 m/s 637 mmHg 13%
    20:00 +29°C° 0 mm 3 m/s 637 mmHg 16%
    21:00 +27°C° 0 mm 3 m/s 636 mmHg 18%
    22:00 +26°C° 0 mm 3 m/s 636 mmHg 19%
    23:00 +25°C° 0 mm 2 m/s 636 mmHg 20%

    Poimâine, 26 August, Luni

    Timp Temperatura Precipitaţii Vânt Presiune Umiditate
    00:00 +24°C° 0 mm 2 m/s 636 mmHg 22%
    01:00 +24°C° 0 mm 2 m/s 635 mmHg 22%
    02:00 +23°C° 0 mm 2 m/s 635 mmHg 23%
    03:00 +21°C° 0 mm 2 m/s 635 mmHg 24%
    04:00 +21°C° 0 mm 2 m/s 635 mmHg 25%
    05:00 +22°C° 0 mm 1 m/s 635 mmHg 25%
    06:00 +22°C° 0 mm 1 m/s 635 mmHg 25%
    07:00 +26°C° 0 mm 1 m/s 637 mmHg 21%
    08:00 +29°C° 0 mm 1 m/s 638 mmHg 17%
    09:00 +32°C° 0 mm 1 m/s 639 mmHg 13%
    10:00 +34°C° 0 mm 1 m/s 639 mmHg 11%
    11:00 +37°C° 0 mm 2 m/s 639 mmHg 10%
    12:00 +39°C° 0 mm 2 m/s 640 mmHg 8%
    13:00 +39°C° 0 mm 2 m/s 639 mmHg 8%
    14:00 +39°C° 0 mm 2 m/s 639 mmHg 7%
    15:00 +40°C° 0 mm 3 m/s 638 mmHg 7%
    16:00 +38°C° 0 mm 3 m/s 638 mmHg 8%
    17:00 +36°C° 0 mm 4 m/s 637 mmHg 9%
    18:00 +35°C° 0 mm 4 m/s 637 mmHg 10%
    19:00 +32°C° 0 mm 4 m/s 637 mmHg 12%
    20:00 +29°C° 0 mm 3 m/s 637 mmHg 14%
    21:00 +27°C° 0 mm 3 m/s 637 mmHg 16%
    22:00 +26°C° 0 mm 2 m/s 636 mmHg 17%
    23:00 +25°C° 0 mm 2 m/s 636 mmHg 19%

    27 August, Marţi

    Timp Temperatura Precipitaţii Vânt Presiune Umiditate
    00:00 +24°C° 0 mm 1 m/s 636 mmHg 20%
    01:00 +23°C° 0 mm 1 m/s 635 mmHg 21%
    02:00 +23°C° 0 mm 1 m/s 635 mmHg 23%
    03:00 +22°C° 0 mm 1 m/s 635 mmHg 24%
    04:00 +22°C° 0 mm 1 m/s 635 mmHg 24%
    05:00 +22°C° 0 mm 1 m/s 635 mmHg 25%
    06:00 +22°C° 0 mm 1 m/s 636 mmHg 25%
    07:00 +25°C° 0 mm 1 m/s 637 mmHg 21%
    08:00 +28°C° 0 mm 1 m/s 638 mmHg 18%
    09:00 +32°C° 0 mm 1 m/s 639 mmHg 14%
    10:00 +33°C° 0 mm 1 m/s 639 mmHg 12%
    11:00 +35°C° 0 mm 1 m/s 640 mmHg 10%
    12:00 +37°C° 0 mm 1 m/s 640 mmHg 9%
    13:00 +39°C° 0 mm 2 m/s 639 mmHg 8%
    14:00 +39°C° 0 mm 2 m/s 639 mmHg 7%
    15:00 +39°C° 0 mm 3 m/s 639 mmHg 7%
    16:00 +38°C° 0 mm 3 m/s 638 mmHg 8%
    17:00 +36°C° 0 mm 3 m/s 638 mmHg 9%
    18:00 +34°C° 0 mm 3 m/s 637 mmHg 11%
    19:00 +31°C° 0 mm 3 m/s 637 mmHg 12%
    20:00 +29°C° 0 mm 3 m/s 637 mmHg 14%
    21:00 +27°C° 0 mm 3 m/s 636 mmHg 15%
    22:00 +26°C° 0 mm 2 m/s 636 mmHg 17%
    23:00 +25°C° 0 mm 2 m/s 636 mmHg 18%

    28 August, Miercuri

    Timp Temperatura Precipitaţii Vânt Presiune Umiditate
    00:00 +24°C° 0 mm 2 m/s 635 mmHg 20%
    01:00 +23°C° 0 mm 1 m/s 635 mmHg 21%
    02:00 +23°C° 0 mm 1 m/s 635 mmHg 22%
    03:00 +22°C° 0 mm 1 m/s 635 mmHg 23%
    04:00 +22°C° 0 mm 1 m/s 635 mmHg 24%
    05:00 +23°C° 0 mm 1 m/s 635 mmHg 24%
    06:00 +23°C° 0 mm 1 m/s 635 mmHg 24%
    07:00 +26°C° 0 mm 1 m/s 637 mmHg 20%
    08:00 +29°C° 0 mm 1 m/s 638 mmHg 17%
    09:00 +33°C° 0 mm 1 m/s 639 mmHg 13%
    10:00 +35°C° 0 mm 2 m/s 639 mmHg 12%
    11:00 +37°C° 0 mm 3 m/s 639 mmHg 10%
    12:00 +39°C° 0 mm 3 m/s 640 mmHg 9%
    13:00 +40°C° 0 mm 4 m/s 639 mmHg 9%
    14:00 +40°C° 0 mm 5 m/s 639 mmHg 8%
    15:00 +41°C° 0 mm 6 m/s 639 mmHg 8%
    16:00 +39°C° 0 mm 5 m/s 638 mmHg 9%
    17:00 +36°C° 0 mm 5 m/s 638 mmHg 11%
    18:00 +34°C° 0 mm 5 m/s 637 mmHg 12%
    19:00 +32°C° 0 mm 4 m/s 637 mmHg 15%
    20:00 +29°C° 0 mm 3 m/s 637 mmHg 17%
    21:00 +26°C° 0 mm 2 m/s 636 mmHg 19%
    22:00 +26°C° 0 mm 2 m/s 636 mmHg 20%
    23:00 +25°C° 0 mm 2 m/s 636 mmHg 21%

    29 August, Joi

    Timp Temperatura Precipitaţii Vânt Presiune Umiditate
    00:00 +24°C° 0 mm 1 m/s 636 mmHg 22%
    01:00 +23°C° 0 mm 1 m/s 636 mmHg 24%
    02:00 +23°C° 0 mm 1 m/s 636 mmHg 25%
    03:00 +22°C° 0 mm 1 m/s 635 mmHg 26%
    04:00 +22°C° 0 mm 1 m/s 636 mmHg 26%
    05:00 +22°C° 0 mm 1 m/s 636 mmHg 26%
    06:00 +23°C° 0 mm 1 m/s 636 mmHg 25%
    07:00 +26°C° 0 mm 1 m/s 638 mmHg 21%
    08:00 +30°C° 0 mm 1 m/s 639 mmHg 17%
    09:00 +33°C° 0 mm 1 m/s 640 mmHg 13%
    10:00 +35°C° 0 mm 1 m/s 640 mmHg 11%
    11:00 +36°C° 0 mm 1 m/s 640 mmHg 9%
    12:00 +39°C° 0 mm 1 m/s 640 mmHg 8%
    13:00 +39°C° 0 mm 2 m/s 640 mmHg 7%
    14:00 +39°C° 0 mm 3 m/s 640 mmHg 7%
    15:00 +41°C° 0 mm 4 m/s 640 mmHg 7%
    16:00 +38°C° 0 mm 3 m/s 639 mmHg 8%
    17:00 +36°C° 0 mm 3 m/s 638 mmHg 10%
    18:00 +34°C° 0 mm 3 m/s 637 mmHg 11%
    19:00 +31°C° 0 mm 3 m/s 637 mmHg 14%
    20:00 +29°C° 0 mm 2 m/s 637 mmHg 17%
    21:00 +27°C° 0 mm 2 m/s 637 mmHg 20%
    22:00 +26°C° 0 mm 2 m/s 637 mmHg 21%
    23:00 +25°C° 0 mm 1 m/s 636 mmHg 22%
    Arată mai mult